Regional Weather Roundup
Issued by NWS

Home | Current Version | Previous Version | Text Only | Print | Product List | Glossary Off
Versions: 1 2 3 4 5 6 7 8 9 10 11 12 13 14 15 16 17 18 19 20 21 22 23 24 25 26 27

000
ASUS45 KBOU 262007
RWRCO

WEATHER ROUNDUP FOR COLORADO
NATIONAL WEATHER SERVICE DENVER/BOULDER CO
200 PM MDT THU MAY 26 2016

NOTE: "FAIR" INDICATES FEW OR NO CLOUDS BELOW 12000 FEET WITH NO
SIGNIFICANT WEATHER AND/OR OBSTRUCTIONS TO VISIBILITY.

COZ001>005-013-030-031-262100-
...NORTHWEST COLORADO...

CITY           SKY/WX    TMP DP  RH WIND       PRES   REMARKS
CRAIG          FAIR      63  31  30 VRB5      29.94F
HAYDEN         FAIR      57  32  38 W12       29.95F
MEEKER         CLOUDY    58  32  37 NE9       29.95R
MOUNT WERNER   NOT AVBL
STEAMBOAT SPGS PTSUNNY   57  35  43 W13       29.96R
WALDEN         CLOUDY    39  30  70 NE22      30.03R
$$

COZ006>008-011-262100-
...WEST CENTRAL VALLEYS...

CITY           SKY/WX    TMP DP  RH WIND       PRES   REMARKS
GRAND JUNCTION FAIR      71  22  15 W8        29.84F
MONTROSE       CLOUDY    55  33  43 SE22G29   29.98R
EAGLE          PTSUNNY   66  16  14 E7        29.89F
RIFLE          FAIR      70  17  13 VRB3      29.85F
DELTA          FAIR      68  30  24 SE26G37   29.91
NUCLA          PTSUNNY   61  27  27 S10G25    30.00R
$$

COZ017>023-064>068-262100-
...SOUTHWEST COLORADO...

CITY           SKY/WX    TMP DP  RH WIND       PRES   REMARKS
DURANGO        FAIR      60  27  28 N14       29.95F
CORTEZ         FAIR      65  17  15 W6        29.91F
PAGOSA SPRINGS PTSUNNY   58  21  24 W13       29.97F THUNDER
TELLURIDE      CLOUDY    37  32  81 SW9G29    30.12R
WOLF CREEK PAS PTSUNNY   34  25  69 S9G18     30.14F WCI  26
$$

COZ009-010-012-014-032>034-037-058>063-262100-
...CENTRAL COLORADO...

CITY           SKY/WX    TMP DP  RH WIND       PRES   REMARKS
ASPEN          CLOUDY    56  18  22 W8        29.94F
BUENA VISTA    FAIR      56  25  29 W21G37    29.95F
COPPER MTN     NOT AVBL
BERTHOUD PASS  HVY SNOW  25  16  68 NW10      30.19S VSB<1/4 WCI  15
COTTONWOOD PAS PTSUNNY   45  27  49 SW20G29   30.04F
GUNNISON       CLOUDY    50  27  40 S18G25    30.03R THUNDER
KREMMLING      CLOUDY    54  23  30 E17G26    29.98R
LEADVILLE      FAIR      47  14  26 W6        30.03F
MONARCH PASS   PTSUNNY   34  21  60 MISG      30.23F
SALIDA         CLOUDY    58  26  28 W8G22     30.02S
SUNLIGHT       CLOUDY    45  19  36 S5        30.14F
WILKERSON PASS LGT RAIN  36  28  75 CALM      30.14F
$$

COZ069>075-262100-
...SAN LUIS VALLEY/SANGRE DE CRISTO MOUNTAINS...

CITY           SKY/WX    TMP DP  RH WIND       PRES   REMARKS
ALAMOSA        FAIR      62  21  20 SW13G26   29.90F
LA VETA PASS   CLOUDY    39  32  75 N8G20     30.06F
SAGUACHE       PTSUNNY   55  21  26 W17       29.95F
$$

COZ035-036-038>040-262100-
...NORTHERN COLORADO FRONT RANGE...

CITY           SKY/WX    TMP DP  RH WIND       PRES   REMARKS
DENVER INTL AP HAIL      53  45  74 NW15      29.90R
DMNS CITY PARK   N/A     61  43  52 NE13G18   29.89R
AURORA         TSTM      53  41  64 W12       29.88S
FRONT RANGE AP CLOUDY    61  43  51 NE18G24   29.88F
ERIE MUNI ARPT PTSUNNY   62  44  52 NE8       29.88F
BOULDER MUN AP PTSUNNY   61  36  39 NW15G21   29.90F
CENTENNIAL     HAIL      52  45  77 N7        29.90S
BROOMFIELD     CLOUDY    61  43  51 NW13      29.90F
FORT COLLINS   FAIR      57  46  67 NE9       29.92F
LONGMONT       CLOUDY    65  44  46 N7        29.91F
$$

COZ041-046-047-076>085-087-088-262100-
...PIKES PEAK/PALMER DIVIDE AND SOUTHERN FOOTHILLS...

CITY           SKY/WX    TMP DP  RH WIND       PRES   REMARKS
COLO. SPRINGS  HAIL      47  35  63 SE12      29.88S
A. F. ACADEMY  LGT RAIN  55  32  41 NW17G25   29.89S
SCHRIEVER AFB  NOT AVBL
ELLICOTT       TSTM     N/A N/A N/A E21       29.83F
FALCON         CLOUDY    56  44  64 NE12G23   29.90F
FORT CARSON    MOSUNNY   57  37  47 W12       29.83F
LIMON          PTSUNNY   67  44  43 E18G24    29.84F
MONUMENT HILL  TSTM      52  43  71 NE8       29.93F
TRINIDAD       FAIR      74  39  28 E8G21     29.79F
$$

COZ042>045-048>051-090-091-262100-
...NORTHEAST COLORADO...

CITY           SKY/WX    TMP DP  RH WIND       PRES   REMARKS
GREELEY ARPT   CLOUDY    59  43  55 N15       29.90F
AKRON          PTSUNNY   69  44  40 NE15G28   29.86F
BURLINGTON     PTSUNNY   74  52  46 NE21G29   29.80F
WRAY           FAIR      75  43  31 NE17G26   29.82F
STERLING       FAIR      72  45  37 NE13G18   29.86F
HOLYOKE        NOT AVBL
FORT MORGAN    CLOUDY    67  40  37 NE13      29.87F
$$

COZ086-089-092>099-262100-
...SOUTHEAST COLORADO...

CITY           SKY/WX    TMP DP  RH WIND       PRES   REMARKS
PUEBLO         PTSUNNY   72  45  37 W13       29.78F
LA JUNTA       PTSUNNY   78  50  37 E20G28    29.74F
LAMAR          FAIR      78  55  44 E14       29.72F
SPRINGFIELD    NOT AVBL
$$




USA.gov is the U.S. government's official web portal to all federal, state and local government web resources and services.